Location: Aressy
(43.2833°N, 0.3167°W)
Time: 08:32:36
(UTC+00:00)

Helios 1A Rocket - Visible Passes

Search period start: 09 May 2021 00:00
Search period end: 19 May 2021 00:00
Orbit: 563 x 584 km, 98.3° (Epoch: 08 May)

Date Brightness Start Highest point End Pass type
(mag) Time Alt. Az. Time Alt. Az. Time Alt. Az.
11 May 3.5 19:40:06 10° S 19:44:10 63° WSW 19:48:19 10° NNW visible
12 May 3.6 19:43:12 10° S 19:47:17 59° WSW 19:51:23 10° NNW visible
13 May 3.7 19:46:19 10° S 19:50:22 54° W 19:54:28 10° NNW visible
14 May 3.9 19:49:27 10° S 19:53:29 50° W 19:57:32 10° NNW visible
15 May 4.0 19:52:35 10° S 19:56:35 47° W 20:00:36 10° NNW visible
16 May 4.1 19:55:44 10° S 19:59:41 43° W 20:03:39 10° NNW visible
17 May 4.3 19:58:53 10° S 20:02:47 40° W 20:06:43 10° NNW visible
18 May 4.4 20:02:02 10° SSW 20:05:54 37° W 20:09:46 10° NNW visible
